This is the latest recevied weather packets stored in our database for station/object HB9TJR-3. If no packets are shown the sender has not sent any weather packets the latest 10 day(s).
| Time | Temp. | Humidity | Pressure | Rain* | Wind** | Luminosity | Snow |
|---|---|---|---|---|---|---|---|
| 1777695334 | 10.56° C | 79% | 872.4 hPa | 0 mm | - | - | - |
| 1777694374 | 10.56° C | 78% | 872.3 hPa | 0 mm | - | - | - |
| 1777693414 | 10.56° C | 77% | 872.3 hPa | 0 mm | - | - | - |
| 1777692455 | 10.56° C | 76% | 872.4 hPa | 0 mm | - | - | - |
| 1777691496 | 10.56° C | 72% | 872.4 hPa | 0 mm | - | - | - |
| 1777690534 | 10.56° C | 76% | 872.5 hPa | 0 mm | - | - | - |
| 1777689575 | 10.56° C | 70% | 872.5 hPa | 0 mm | - | - | - |
| 1777688614 | 10.56° C | 71% | 872.5 hPa | 0 mm | - | - | - |
| 1777687657 | 10.56° C | 70% | 872.6 hPa | 0 mm | - | - | - |
| 1777686694 | 10.56° C | 69% | 872.7 hPa | 0 mm | - | - | - |
| 1777685734 | 10.56° C | 68% | 872.8 hPa | 0 mm | - | - | - |
| 1777684776 | 10.56° C | 69% | 872.8 hPa | 0 mm | - | - | - |
| 1777683814 | 10.56° C | 69% | 872.9 hPa | 0 mm | - | - | - |
| 1777682854 | 10.56° C | 68% | 873 hPa | 0 mm | - | - | - |
| 1777681894 | 10.56° C | 67% | 873.1 hPa | 0 mm | - | - | - |
| 1777680935 | 10.56° C | 68% | 873.1 hPa | 0 mm | - | - | - |
| 1777679014 | 11.11° C | 67% | 873.3 hPa | 0 mm | - | - | - |
| 1777678054 | 11.11° C | 67% | 873.4 hPa | 0 mm | - | - | - |
| 1777677094 | 11.11° C | 67% | 873.4 hPa | 0 mm | - | - | - |
| 1777676134 | 11.11° C | 66% | 873.4 hPa | 0 mm | - | - | - |
| 1777675174 | 11.11° C | 65% | 873.5 hPa | 0 mm | - | - | - |
| 1777674218 | 11.67° C | 65% | 873.5 hPa | 0 mm | - | - | - |
| 1777673256 | 11.67° C | 65% | 873.4 hPa | 0 mm | - | - | - |
| 1777672296 | 11.67° C | 65% | 873.3 hPa | 0 mm | - | - | - |
| 1777671339 | 11.67° C | 65% | 873.2 hPa | 0 mm | - | - | - |
* Rain latest hour (hover to see other rain measurements)
** Current wind speed in m/s (hover to see current wind gust speed)